JH1LWU-13 Weather Reports


time (UTC)temp
C
wind
direction
speed
KPH
gust
KPH
rain 1hr
cm
rain 24hr
cm
rain mn
cm
humidity
%
barometer
mb
20260505190504 15 316 0.0 1.6 0.00 0.00 0.00 67 1018.0
20260505183503 15 314 0.0 1.6 0.00 0.00 0.00 67 1019.0
20260505180502 15 41 1.6 3.2 0.00 0.00 0.00 66 1019.0
20260505173501 15 191 0.0 3.2 0.00 0.00 0.00 65 1020.0
20260505170500 15 285 0.0 1.6 0.00 0.00 0.00 63 1019.0
20260505163459 15 197 3.2 6.4 0.00 0.00 0.00 62 1020.0
20260505160458 15 1 3.2 6.4 0.00 0.00 0.00 61 1020.0
20260505150456 15 13 0.0 4.8 0.00 0.00 0.00 55 1020.0
20260505140454 15 291 4.8 6.4 0.00 0.00 0.00 52 1021.0
20260505123451 15 231 0.0 8.0 0.00 0.00 0.00 48 1020.0
20260505120450 15 35 4.8 6.4 0.00 0.00 0.00 46 1019.0
20260505113449 15 11 4.8 9.7 0.00 0.00 0.00 45 1019.0
20260505110448 16 158 9.7 9.7 0.00 0.00 0.00 44 1018.0
20260505100446 16 15 6.4 8.0 0.00 0.00 0.00 39 1017.0
20260505093445 17 110 3.2 4.8 0.00 0.00 0.00 43 1018.0
20260505090444 17 28 0.0 6.4 0.00 0.00 0.00 41 1017.0
20260505083443 18 314 3.2 9.7 0.00 0.00 0.00 38 1017.0
20260505080442 18 170 1.6 6.4 0.00 0.00 0.00 34 1016.0
20260505073441 20 153 4.8 8.0 0.00 0.00 0.00 28 1017.0
20260505070440 21 174 3.2 9.7 0.00 0.00 0.00 25 1015.0
20260505063439 21 218 6.4 19.3 0.00 0.00 0.00 20 1015.0
20260505060438 21 246 8.0 12.9 0.00 0.00 0.00 16 1015.0
20260505053437 21 167 0.0 6.4 0.00 0.00 0.00 17 1015.0
20260505050436 22 263 0.0 0.0 0.00 0.00 0.00 18 1017.0
20260505040434 22 339 1.6 8.0 0.00 0.00 0.00 20 1017.0
20260505033433 22 281 0.0 4.8 0.00 0.00 0.00 21 1016.0
20260505030432 22 73 0.0 4.8 0.00 0.00 0.00 21 1016.0
20260505023431 22 200 1.6 6.4 0.00 0.00 0.00 20 1016.0
20260505020430 22 6 0.0 0.0 0.00 0.00 0.00 20 1016.0
20260505013429 22 187 1.6 3.2 0.00 0.00 0.00 20 1015.0
20260505010428 21 10 0.0 3.2 0.00 0.00 0.00 21 1015.0
20260505003427 21 141 4.8 4.8 0.00 0.00 0.00 22 1015.0
20260505000428 20 318 0.0 4.8 0.00 0.00 0.00 24 1016.0
20260504233425 20 30 0.0 3.2 0.00 0.00 0.00 24 1015.0
20260504230424 18 55 0.0 3.2 0.00 0.00 0.00 26 1015.0
20260504223423 17 271 0.0 3.2 0.00 0.00 0.00 28 1015.0
20260504220422 16 101 0.0 0.0 0.00 0.00 0.00 30 1015.0
20260504213421 15 267 1.6 1.6 0.00 0.00 0.00 35 1013.0
20260504210420 13 117 1.6 3.2 0.00 0.00 0.00 38 1015.0
20260504203419 12 201 4.8 6.4 0.00 0.00 0.00 39 1013.0
20260504200418 12 4 0.0 1.6 0.00 0.00 0.00 40 1012.0
20260504193417 12 356 0.0 1.6 0.00 0.00 0.00 41 1010.0